IRM4 YPDN-WADD

Flight info

Callsign IRM4
Flight time 2h 23m
Altitude 38000
Route JULIE Q320 IDOTO M766 GABIT
Aircraft A346/H-SDE2E3FGHIJ3J4J5M1RWXY/LB1D1

Departure

Time 2026-03-29 07:09
Airport Darwin International Airport / RAAF Darwin (YPDN)

Arrival

Time 2026-03-29 09:32
Airport Denpasar I Gusti Ngurah Rai International Airport (WADD)
Time Latitude Longitude Altitude Speed Heading
2026-03-29 06:47 -12.40921 130.87781 102 ft 0 kts 21°
2026-03-29 06:59 -12.40920 130.87781 102 ft 0 kts 21°
2026-03-29 06:59 -12.40934 130.87776 102 ft 0 kts 21°
2026-03-29 07:00 -12.40958 130.87766 103 ft 0 kts 21°
2026-03-29 07:00 -12.40974 130.87754 104 ft 0 kts 56°
2026-03-29 07:00 -12.40978 130.87739 102 ft 0 kts 89°
2026-03-29 07:00 -12.40978 130.87738 102 ft 0 kts 90°
2026-03-29 07:03 -12.40978 130.87765 104 ft 10 kts 90°
2026-03-29 07:03 -12.40985 130.87850 105 ft 13 kts 104°
2026-03-29 07:04 -12.41016 130.87950 106 ft 16 kts 109°
2026-03-29 07:04 -12.41055 130.88057 106 ft 13 kts 114°
2026-03-29 07:04 -12.41093 130.88150 106 ft 16 kts 110°
2026-03-29 07:04 -12.41153 130.88220 105 ft 9 kts 205°
2026-03-29 07:05 -12.41172 130.88152 108 ft 11 kts 257°
2026-03-29 07:05 -12.41203 130.88082 107 ft 12 kts 225°
2026-03-29 07:05 -12.41322 130.88020 107 ft 22 kts 200°
2026-03-29 07:05 -12.41456 130.88073 105 ft 24 kts 121°
2026-03-29 07:06 -12.41519 130.88239 105 ft 26 kts 109°
2026-03-29 07:06 -12.41579 130.88426 102 ft 28 kts 108°
2026-03-29 07:06 -12.41644 130.88616 105 ft 28 kts 109°
2026-03-29 07:06 -12.41689 130.88746 105 ft 29 kts 109°
2026-03-29 07:07 -12.41754 130.88946 109 ft 30 kts 109°
2026-03-29 07:07 -12.41835 130.89199 108 ft 14 kts 101°
2026-03-29 07:07 -12.41841 130.89297 107 ft 14 kts 91°
2026-03-29 07:07 -12.41853 130.89366 107 ft 15 kts 110°
2026-03-29 07:08 -12.41897 130.89347 108 ft 13 kts 281°
2026-03-29 07:08 -12.41690 130.88755 106 ft 105 kts 289°
2026-03-29 07:08 -12.41383 130.87848 110 ft 162 kts 289°
2026-03-29 07:09 -12.40991 130.86649 498 ft 180 kts 289°
2026-03-29 07:09 -12.40591 130.85423 1191 ft 184 kts 289°
2026-03-29 07:09 -12.40158 130.84168 1952 ft 186 kts 290°
2026-03-29 07:09 -12.39713 130.82889 2577 ft 196 kts 288°
2026-03-29 07:10 -12.39274 130.81537 3072 ft 205 kts 288°
2026-03-29 07:10 -12.38787 130.80106 3473 ft 219 kts 288°
2026-03-29 07:10 -12.38255 130.78603 3936 ft 230 kts 289°
2026-03-29 07:10 -12.37703 130.77010 4371 ft 243 kts 288°
2026-03-29 07:11 -12.37149 130.75337 4750 ft 260 kts 287°
2026-03-29 07:11 -12.36540 130.73500 5076 ft 282 kts 288°
2026-03-29 07:11 -12.35846 130.71565 5649 ft 294 kts 294°
2026-03-29 07:11 -12.34813 130.69754 6483 ft 296 kts 304°
2026-03-29 07:12 -12.33594 130.68053 7364 ft 297 kts 307°
2026-03-29 07:12 -12.32331 130.66374 8309 ft 296 kts 307°
2026-03-29 07:12 -12.31114 130.64683 9271 ft 295 kts 306°
2026-03-29 07:12 -12.29917 130.62965 10121 ft 299 kts 305°
2026-03-29 07:13 -12.28674 130.61214 10742 ft 310 kts 307°
2026-03-29 07:13 -12.27316 130.59429 11237 ft 325 kts 307°
2026-03-29 07:13 -12.25947 130.57515 11667 ft 341 kts 305°
2026-03-29 07:13 -12.24548 130.55491 12126 ft 355 kts 305°
2026-03-29 07:14 -12.23121 130.53345 12505 ft 372 kts 302°
2026-03-29 07:14 -12.21777 130.51042 13096 ft 380 kts 299°
2026-03-29 07:14 -12.20514 130.48647 13859 ft 383 kts 298°
2026-03-29 07:14 -12.19255 130.46232 14542 ft 386 kts 298°
2026-03-29 07:15 -12.17995 130.43809 15154 ft 391 kts 298°
2026-03-29 07:15 -12.16710 130.41338 15757 ft 396 kts 298°
2026-03-29 07:15 -12.15407 130.38832 16344 ft 401 kts 298°
2026-03-29 07:15 -12.14089 130.36301 16935 ft 405 kts 298°
2026-03-29 07:16 -12.12752 130.33736 17533 ft 410 kts 298°
2026-03-29 07:16 -12.11404 130.31150 18093 ft 414 kts 298°
2026-03-29 07:16 -12.10041 130.28538 18574 ft 418 kts 298°
2026-03-29 07:16 -12.08664 130.25900 19055 ft 422 kts 298°
2026-03-29 07:17 -12.07278 130.23246 19542 ft 425 kts 298°
2026-03-29 07:17 -12.05879 130.20566 20023 ft 429 kts 298°
2026-03-29 07:17 -12.04465 130.17858 20461 ft 433 kts 298°
2026-03-29 07:17 -12.03037 130.15125 20934 ft 437 kts 298°
2026-03-29 07:18 -12.01600 130.12376 21367 ft 441 kts 298°
2026-03-29 07:18 -12.00166 130.09631 21816 ft 445 kts 298°
2026-03-29 07:18 -11.98702 130.06831 22274 ft 448 kts 297°
2026-03-29 07:18 -11.97229 130.04013 22769 ft 451 kts 297°
2026-03-29 07:19 -11.95746 130.01177 23256 ft 453 kts 297°
2026-03-29 07:19 -11.94258 129.98331 23709 ft 454 kts 297°
2026-03-29 07:19 -11.92759 129.95468 24089 ft 457 kts 297°
2026-03-29 07:19 -11.91253 129.92591 24444 ft 460 kts 297°
2026-03-29 07:20 -11.89735 129.89691 24814 ft 463 kts 297°
2026-03-29 07:20 -11.88203 129.86766 25187 ft 466 kts 297°
2026-03-29 07:20 -11.86669 129.83837 25559 ft 469 kts 297°
2026-03-29 07:20 -11.85122 129.80883 25925 ft 473 kts 297°
2026-03-29 07:21 -11.83584 129.77946 26292 ft 476 kts 297°
2026-03-29 07:21 -11.82017 129.74959 26665 ft 479 kts 296°
2026-03-29 07:21 -11.80580 129.71872 27021 ft 481 kts 292°
2026-03-29 07:21 -11.79393 129.68662 27398 ft 483 kts 287°
2026-03-29 07:22 -11.78472 129.65342 27759 ft 485 kts 282°
2026-03-29 07:22 -11.77709 129.61974 28127 ft 488 kts 281°
2026-03-29 07:22 -11.76972 129.58576 28489 ft 491 kts 281°
2026-03-29 07:22 -11.76237 129.55158 28838 ft 494 kts 281°
2026-03-29 07:23 -11.75492 129.51709 29203 ft 497 kts 281°
2026-03-29 07:23 -11.74744 129.48264 29709 ft 496 kts 281°
2026-03-29 07:23 -11.73993 129.44825 30217 ft 495 kts 281°
2026-03-29 07:23 -11.73254 129.41448 30691 ft 493 kts 281°
2026-03-29 07:24 -11.72505 129.38030 31187 ft 491 kts 281°
2026-03-29 07:24 -11.71759 129.34631 31686 ft 489 kts 281°
2026-03-29 07:24 -11.71012 129.31234 32178 ft 487 kts 281°
2026-03-29 07:24 -11.70269 129.27856 32661 ft 486 kts 281°
2026-03-29 07:25 -11.69528 129.24488 33171 ft 485 kts 281°
2026-03-29 07:25 -11.68787 129.21125 33661 ft 483 kts 281°
2026-03-29 07:25 -11.68052 129.17787 34132 ft 481 kts 281°
2026-03-29 07:25 -11.67326 129.14491 34581 ft 480 kts 281°
2026-03-29 07:26 -11.66595 129.11171 35038 ft 477 kts 281°
2026-03-29 07:26 -11.65866 129.07869 35475 ft 476 kts 281°
2026-03-29 07:26 -11.65138 129.04571 35886 ft 475 kts 281°
2026-03-29 07:26 -11.64412 129.01284 36280 ft 474 kts 281°
2026-03-29 07:27 -11.63684 128.97991 36634 ft 474 kts 282°
2026-03-29 07:27 -11.62956 128.94701 36960 ft 475 kts 282°
2026-03-29 07:27 -11.62225 128.91403 37273 ft 476 kts 282°
2026-03-29 07:27 -11.61494 128.88102 37574 ft 477 kts 282°
2026-03-29 07:28 -11.60758 128.84786 37842 ft 479 kts 282°
2026-03-29 07:28 -11.59282 128.78139 37885 ft 480 kts 282°
2026-03-29 07:29 -11.57803 128.71485 37888 ft 480 kts 282°
2026-03-29 07:29 -11.56329 128.64860 37889 ft 480 kts 282°
2026-03-29 07:30 -11.54831 128.58135 37894 ft 492 kts 282°
2026-03-29 07:30 -11.53297 128.51253 38096 ft 500 kts 282°
2026-03-29 07:30 -11.52522 128.47780 38246 ft 503 kts 282°
2026-03-29 07:31 -11.51745 128.44300 38497 ft 503 kts 282°
2026-03-29 07:31 -11.50968 128.40823 38748 ft 502 kts 282°
2026-03-29 07:31 -11.50191 128.37347 38978 ft 501 kts 282°
2026-03-29 07:31 -11.49424 128.33919 39194 ft 500 kts 282°
2026-03-29 07:32 -11.48650 128.30460 39412 ft 499 kts 282°
2026-03-29 07:32 -11.47878 128.27012 39612 ft 498 kts 282°
2026-03-29 07:32 -11.47104 128.23553 39803 ft 498 kts 282°
2026-03-29 07:33 -11.45562 128.16666 39878 ft 497 kts 282°
2026-03-29 07:33 -11.44194 128.09735 39887 ft 497 kts 277°
2026-03-29 07:34 -11.43525 128.02759 39888 ft 496 kts 271°
2026-03-29 07:34 -11.43599 127.95728 39889 ft 495 kts 265°
2026-03-29 07:35 -11.44053 127.88701 39888 ft 495 kts 265°
2026-03-29 07:35 -11.44518 127.81684 39889 ft 495 kts 265°
2026-03-29 07:36 -11.44974 127.74672 39889 ft 495 kts 265°
2026-03-29 07:36 -11.45424 127.67656 39888 ft 495 kts 265°
2026-03-29 07:37 -11.45873 127.60634 39888 ft 495 kts 265°
2026-03-29 07:37 -11.46316 127.53654 39889 ft 495 kts 265°
2026-03-29 07:38 -11.46761 127.46633 39890 ft 495 kts 265°
2026-03-29 07:38 -11.47204 127.39603 39891 ft 496 kts 265°
2026-03-29 07:39 -11.47646 127.32572 39891 ft 496 kts 265°
2026-03-29 07:39 -11.48087 127.25539 39890 ft 496 kts 265°
2026-03-29 07:40 -11.48523 127.18516 39893 ft 496 kts 265°
2026-03-29 07:40 -11.48958 127.11534 39891 ft 496 kts 265°
2026-03-29 07:41 -11.49394 127.04491 39892 ft 496 kts 265°
2026-03-29 07:41 -11.49827 126.97463 39890 ft 496 kts 265°
2026-03-29 07:42 -11.50260 126.90421 39892 ft 496 kts 265°
2026-03-29 07:42 -11.50693 126.83368 39891 ft 496 kts 265°
2026-03-29 07:43 -11.51123 126.76335 39892 ft 496 kts 265°
2026-03-29 07:43 -11.51394 126.69283 39893 ft 498 kts 269°
2026-03-29 07:44 -11.50981 126.62210 39891 ft 499 kts 275°
2026-03-29 07:44 -11.49841 126.55247 39890 ft 501 kts 281°
2026-03-29 07:45 -11.48360 126.48294 39892 ft 500 kts 281°
2026-03-29 07:45 -11.46870 126.41351 39892 ft 501 kts 281°
2026-03-29 07:46 -11.45383 126.34396 39890 ft 501 kts 281°
2026-03-29 07:46 -11.43900 126.27451 39893 ft 501 kts 281°
2026-03-29 07:47 -11.42425 126.20543 39891 ft 501 kts 281°
2026-03-29 07:47 -11.40938 126.13590 39893 ft 501 kts 281°
2026-03-29 07:48 -11.39454 126.06652 39890 ft 501 kts 281°
2026-03-29 07:48 -11.37966 125.99707 39892 ft 501 kts 281°
2026-03-29 07:49 -11.36476 125.92762 39894 ft 501 kts 281°
2026-03-29 07:49 -11.34982 125.85805 39891 ft 501 kts 281°
2026-03-29 07:50 -11.33496 125.78897 39890 ft 501 kts 281°
2026-03-29 07:50 -11.32001 125.71951 39887 ft 501 kts 281°
2026-03-29 07:51 -11.30502 125.64990 39887 ft 502 kts 281°
2026-03-29 07:51 -11.28999 125.58032 39886 ft 502 kts 281°
2026-03-29 07:52 -11.27501 125.51112 39884 ft 502 kts 281°
2026-03-29 07:52 -11.25994 125.44150 39882 ft 502 kts 281°
2026-03-29 07:53 -11.24488 125.37196 39880 ft 502 kts 281°
2026-03-29 07:53 -11.22980 125.30239 39881 ft 502 kts 281°
2026-03-29 07:54 -11.21726 125.24461 39884 ft 502 kts 281°
2026-03-29 07:54 -11.20214 125.17502 39880 ft 502 kts 281°
2026-03-29 07:55 -11.18701 125.10546 39879 ft 502 kts 281°
2026-03-29 07:55 -11.17185 125.03585 39883 ft 502 kts 281°
2026-03-29 07:56 -11.15671 124.96641 39879 ft 502 kts 281°
2026-03-29 07:56 -11.14161 124.89721 39881 ft 502 kts 281°
2026-03-29 07:57 -11.12641 124.82758 39878 ft 503 kts 282°
2026-03-29 07:57 -11.11115 124.75784 39879 ft 504 kts 282°
2026-03-29 07:58 -11.09588 124.68804 39878 ft 504 kts 281°
2026-03-29 07:58 -11.08069 124.61866 39878 ft 504 kts 282°
2026-03-29 07:59 -11.06536 124.54900 39877 ft 504 kts 282°
2026-03-29 07:59 -11.04971 124.47929 39876 ft 504 kts 282°
2026-03-29 08:00 -11.03404 124.40958 39875 ft 504 kts 282°
2026-03-29 08:00 -11.01834 124.33979 39877 ft 505 kts 282°
2026-03-29 08:01 -11.00274 124.27043 39878 ft 505 kts 282°
2026-03-29 08:01 -10.98706 124.20073 39875 ft 505 kts 282°
2026-03-29 08:02 -10.97134 124.13095 39870 ft 505 kts 282°
2026-03-29 08:02 -10.95558 124.06108 39870 ft 505 kts 282°
2026-03-29 08:03 -10.93990 123.99169 39869 ft 506 kts 282°
2026-03-29 08:03 -10.92405 123.92162 39868 ft 507 kts 282°
2026-03-29 08:04 -10.90814 123.85161 39866 ft 507 kts 282°
2026-03-29 08:04 -10.89219 123.78141 39865 ft 507 kts 282°
2026-03-29 08:05 -10.87633 123.71154 39864 ft 507 kts 282°
2026-03-29 08:05 -10.86042 123.64149 39867 ft 507 kts 282°
2026-03-29 08:06 -10.84458 123.57185 39867 ft 507 kts 282°
2026-03-29 08:06 -10.82863 123.50178 39866 ft 507 kts 282°
2026-03-29 08:07 -10.81266 123.43167 39864 ft 507 kts 282°
2026-03-29 08:07 -10.79666 123.36149 39864 ft 507 kts 282°
2026-03-29 08:08 -10.78067 123.29145 39864 ft 507 kts 282°
2026-03-29 08:08 -10.76477 123.22189 39865 ft 507 kts 282°
2026-03-29 08:09 -10.74871 123.15175 39868 ft 507 kts 282°
2026-03-29 08:09 -10.73268 123.08169 39866 ft 508 kts 282°
2026-03-29 08:10 -10.71658 123.01152 39869 ft 508 kts 282°
2026-03-29 08:10 -10.70057 122.94181 39870 ft 508 kts 282°
2026-03-29 08:11 -10.67638 122.83656 39870 ft 509 kts 282°
2026-03-29 08:11 -10.66022 122.76636 39867 ft 509 kts 282°
2026-03-29 08:12 -10.64402 122.69610 39867 ft 509 kts 283°
2026-03-29 08:12 -10.62794 122.62636 39867 ft 509 kts 283°
2026-03-29 08:13 -10.61172 122.55612 39866 ft 510 kts 283°
2026-03-29 08:13 -10.59548 122.48588 39867 ft 510 kts 283°
2026-03-29 08:14 -10.57921 122.41558 39867 ft 510 kts 283°
2026-03-29 08:14 -10.56292 122.34523 39870 ft 510 kts 283°
2026-03-29 08:15 -10.54672 122.27536 39868 ft 510 kts 283°
2026-03-29 08:15 -10.53035 122.20480 39870 ft 511 kts 283°
2026-03-29 08:16 -10.51396 122.13430 39870 ft 512 kts 283°
2026-03-29 08:16 -10.49754 122.06372 39868 ft 512 kts 283°
2026-03-29 08:17 -10.48112 121.99322 39869 ft 512 kts 283°
2026-03-29 08:17 -10.46466 121.92263 39867 ft 512 kts 283°
2026-03-29 08:18 -10.44828 121.85248 39867 ft 512 kts 283°
2026-03-29 08:18 -10.43181 121.78191 39862 ft 513 kts 283°
2026-03-29 08:19 -10.41528 121.71124 39868 ft 513 kts 283°
2026-03-29 08:19 -10.39877 121.64067 39867 ft 513 kts 283°
2026-03-29 08:20 -10.38222 121.57005 39864 ft 513 kts 283°
2026-03-29 08:20 -10.36566 121.49944 39865 ft 513 kts 283°
2026-03-29 08:21 -10.34907 121.42879 39864 ft 513 kts 283°
2026-03-29 08:21 -10.33251 121.35817 39864 ft 513 kts 283°
2026-03-29 08:22 -10.31590 121.28755 39865 ft 514 kts 283°
2026-03-29 08:22 -10.29921 121.21670 39864 ft 514 kts 283°
2026-03-29 08:23 -10.28263 121.14642 39863 ft 514 kts 283°
2026-03-29 08:23 -10.26591 121.07560 39864 ft 514 kts 283°
2026-03-29 08:24 -10.24918 121.00480 39864 ft 514 kts 283°
2026-03-29 08:24 -10.23246 120.93409 39865 ft 514 kts 284°
2026-03-29 08:25 -10.21570 120.86331 39867 ft 514 kts 284°
2026-03-29 08:25 -10.19903 120.79300 39867 ft 514 kts 284°
2026-03-29 08:26 -10.18223 120.72220 39869 ft 514 kts 284°
2026-03-29 08:26 -10.16544 120.65146 39870 ft 514 kts 284°
2026-03-29 08:27 -10.14862 120.58073 39876 ft 514 kts 284°
2026-03-29 08:27 -10.13180 120.51004 39881 ft 514 kts 284°
2026-03-29 08:28 -10.11495 120.43931 39881 ft 514 kts 284°
2026-03-29 08:28 -10.09811 120.36860 39882 ft 515 kts 284°
2026-03-29 08:29 -10.08136 120.29841 39883 ft 514 kts 284°
2026-03-29 08:29 -10.06446 120.22768 39880 ft 515 kts 284°
2026-03-29 08:30 -10.04755 120.15695 39877 ft 515 kts 284°
2026-03-29 08:30 -10.03062 120.08613 39880 ft 515 kts 284°
2026-03-29 08:31 -10.01365 120.01531 39878 ft 515 kts 284°
2026-03-29 08:31 -9.99670 119.94449 39874 ft 515 kts 284°
2026-03-29 08:32 -9.97992 119.87416 39871 ft 515 kts 284°
2026-03-29 08:32 -9.96301 119.80330 39873 ft 515 kts 284°
2026-03-29 08:33 -9.94609 119.73248 39874 ft 515 kts 284°
2026-03-29 08:33 -9.92915 119.66171 39869 ft 515 kts 284°
2026-03-29 08:34 -9.91221 119.59095 39870 ft 515 kts 284°
2026-03-29 08:34 -9.89533 119.52052 39869 ft 515 kts 284°
2026-03-29 08:35 -9.87835 119.44972 39866 ft 516 kts 284°
2026-03-29 08:35 -9.86140 119.37911 39872 ft 514 kts 284°
2026-03-29 08:36 -9.84442 119.30850 39871 ft 514 kts 284°
2026-03-29 08:36 -9.82744 119.23797 39860 ft 513 kts 284°
2026-03-29 08:37 -9.81049 119.16757 39865 ft 513 kts 284°
2026-03-29 08:37 -9.79353 119.09723 39864 ft 512 kts 284°
2026-03-29 08:38 -9.77664 119.02722 39860 ft 512 kts 284°
2026-03-29 08:38 -9.75946 118.95650 39895 ft 512 kts 285°
2026-03-29 08:39 -9.74239 118.88622 39869 ft 512 kts 284°
2026-03-29 08:39 -9.72547 118.81587 39858 ft 512 kts 284°
2026-03-29 08:40 -9.70849 118.74556 39859 ft 512 kts 284°
2026-03-29 08:40 -9.69158 118.67574 39859 ft 512 kts 284°
2026-03-29 08:41 -9.67452 118.60542 39856 ft 513 kts 284°
2026-03-29 08:41 -9.66033 118.54701 39856 ft 513 kts 284°
2026-03-29 08:42 -9.64321 118.47654 39853 ft 513 kts 284°
2026-03-29 08:42 -9.62606 118.40608 39853 ft 513 kts 284°
2026-03-29 08:43 -9.60893 118.33572 39854 ft 520 kts 284°
2026-03-29 08:43 -9.59152 118.26417 39844 ft 517 kts 284°
2026-03-29 08:44 -9.57459 118.19460 39840 ft 494 kts 284°
2026-03-29 08:44 -9.55830 118.12779 39847 ft 485 kts 284°
2026-03-29 08:45 -9.54202 118.06121 39849 ft 485 kts 285°
2026-03-29 08:45 -9.52581 117.99491 39762 ft 482 kts 285°
2026-03-29 08:46 -9.51789 117.96253 39470 ft 476 kts 285°
2026-03-29 08:46 -9.50997 117.93017 39145 ft 470 kts 285°
2026-03-29 08:46 -9.50212 117.89811 38637 ft 465 kts 285°
2026-03-29 08:46 -9.49428 117.86612 37508 ft 469 kts 285°
2026-03-29 08:47 -9.48633 117.83380 36310 ft 475 kts 285°
2026-03-29 08:47 -9.47824 117.80094 35847 ft 477 kts 285°
2026-03-29 08:47 -9.47030 117.76855 35529 ft 471 kts 285°
2026-03-29 08:47 -9.46244 117.73650 35200 ft 465 kts 285°
2026-03-29 08:48 -9.45466 117.70481 34876 ft 459 kts 285°
2026-03-29 08:48 -9.44707 117.67387 34562 ft 453 kts 284°
2026-03-29 08:48 -9.43949 117.64306 34250 ft 448 kts 284°
2026-03-29 08:48 -9.43199 117.61256 33948 ft 443 kts 284°
2026-03-29 08:49 -9.42446 117.58255 33319 ft 437 kts 286°
2026-03-29 08:49 -9.41634 117.55294 32473 ft 434 kts 287°
2026-03-29 08:49 -9.40804 117.52344 31590 ft 434 kts 287°
2026-03-29 08:49 -9.39981 117.49419 31330 ft 427 kts 286°
2026-03-29 08:50 -9.39175 117.46546 31033 ft 421 kts 286°
2026-03-29 08:50 -9.38382 117.43709 30695 ft 417 kts 286°
2026-03-29 08:50 -9.37596 117.40888 30269 ft 411 kts 286°
2026-03-29 08:50 -9.36827 117.38118 29537 ft 407 kts 286°
2026-03-29 08:51 -9.36057 117.35348 28554 ft 408 kts 286°
2026-03-29 08:51 -9.35288 117.32586 27758 ft 405 kts 286°
2026-03-29 08:51 -9.34535 117.29883 27328 ft 401 kts 286°
2026-03-29 08:51 -9.33779 117.27164 26846 ft 401 kts 286°
2026-03-29 08:52 -9.33023 117.24447 26411 ft 399 kts 286°
2026-03-29 08:52 -9.32270 117.21742 25986 ft 398 kts 286°
2026-03-29 08:52 -9.31522 117.19051 25613 ft 394 kts 285°
2026-03-29 08:52 -9.30778 117.16380 25242 ft 391 kts 285°
2026-03-29 08:53 -9.30038 117.13725 24843 ft 389 kts 285°
2026-03-29 08:53 -9.29306 117.11095 24492 ft 386 kts 285°
2026-03-29 08:53 -9.28578 117.08482 24154 ft 383 kts 285°
2026-03-29 08:53 -9.27903 117.05889 23550 ft 381 kts 281°
2026-03-29 08:54 -9.27534 117.03244 22960 ft 375 kts 272°
2026-03-29 08:54 -9.27528 117.00665 22854 ft 365 kts 265°
2026-03-29 08:54 -9.27826 116.98138 22848 ft 360 kts 259°
2026-03-29 08:54 -9.28267 116.95646 22848 ft 358 kts 258°
2026-03-29 08:55 -9.28729 116.93173 22870 ft 357 kts 258°
2026-03-29 08:55 -9.29190 116.90697 22860 ft 357 kts 258°
2026-03-29 08:55 -9.29646 116.88218 22779 ft 358 kts 258°
2026-03-29 08:55 -9.30102 116.85726 22821 ft 360 kts 258°
2026-03-29 08:56 -9.30557 116.83228 22864 ft 360 kts 258°
2026-03-29 08:56 -9.31009 116.80726 22877 ft 362 kts 258°
2026-03-29 08:56 -9.31465 116.78201 22864 ft 366 kts 258°
2026-03-29 08:56 -9.31920 116.75677 22958 ft 358 kts 259°
2026-03-29 08:57 -9.32362 116.73229 22810 ft 347 kts 258°
2026-03-29 08:57 -9.32789 116.70868 22832 ft 334 kts 258°
2026-03-29 08:57 -9.33199 116.68577 22848 ft 326 kts 258°
2026-03-29 08:57 -9.33606 116.66315 22850 ft 326 kts 258°
2026-03-29 08:58 -9.34017 116.64053 22862 ft 326 kts 258°
2026-03-29 08:58 -9.34425 116.61795 22872 ft 325 kts 258°
2026-03-29 08:58 -9.34833 116.59540 22893 ft 324 kts 258°
2026-03-29 08:58 -9.35231 116.57311 22883 ft 325 kts 258°
2026-03-29 08:59 -9.35636 116.55051 22874 ft 326 kts 258°
2026-03-29 08:59 -9.36043 116.52785 22873 ft 326 kts 258°
2026-03-29 08:59 -9.36450 116.50527 22870 ft 326 kts 258°
2026-03-29 08:59 -9.36857 116.48276 22891 ft 324 kts 258°
2026-03-29 09:00 -9.37259 116.46023 22881 ft 325 kts 258°
2026-03-29 09:00 -9.37665 116.43763 22884 ft 325 kts 258°
2026-03-29 09:00 -9.38071 116.41497 22873 ft 326 kts 258°
2026-03-29 09:00 -9.38477 116.39239 22877 ft 326 kts 258°
2026-03-29 09:01 -9.38885 116.36981 22901 ft 324 kts 258°
2026-03-29 09:01 -9.39285 116.34731 22891 ft 325 kts 258°
2026-03-29 09:01 -9.39690 116.32464 23896 ft 326 kts 258°
2026-03-29 09:01 -9.40092 116.30264 22947 ft 320 kts 259°
2026-03-29 09:02 -9.40486 116.28041 22877 ft 322 kts 259°
2026-03-29 09:02 -9.40874 116.25799 22892 ft 321 kts 261°
2026-03-29 09:02 -9.41174 116.23547 22878 ft 323 kts 263°
2026-03-29 09:02 -9.41367 116.21278 22882 ft 323 kts 266°
2026-03-29 09:03 -9.41450 116.18989 22872 ft 325 kts 269°
2026-03-29 09:03 -9.41431 116.16697 22881 ft 324 kts 271°
2026-03-29 09:03 -9.41386 116.14409 22874 ft 324 kts 271°
2026-03-29 09:03 -9.41341 116.12149 22889 ft 323 kts 271°
2026-03-29 09:04 -9.41295 116.09862 22889 ft 323 kts 271°
2026-03-29 09:04 -9.41246 116.07580 22878 ft 324 kts 270°
2026-03-29 09:04 -9.41192 116.05295 22872 ft 324 kts 275°
2026-03-29 09:04 -9.41012 116.03015 22908 ft 324 kts 270°
2026-03-29 09:05 -9.41221 116.00744 22915 ft 324 kts 255°
2026-03-29 09:05 -9.41622 115.98501 22899 ft 325 kts 273°
2026-03-29 09:05 -9.41041 115.96317 22797 ft 323 kts 303°
2026-03-29 09:05 -9.39501 115.94748 22620 ft 320 kts 336°
2026-03-29 09:06 -9.37420 115.93994 22436 ft 319 kts 333°
2026-03-29 09:06 -9.35770 115.92513 22154 ft 321 kts 299°
2026-03-29 09:06 -9.35179 115.90365 21843 ft 319 kts 265°
2026-03-29 09:06 -9.35781 115.88231 21608 ft 315 kts 243°
2026-03-29 09:07 -9.36578 115.86167 21473 ft 317 kts 260°
2026-03-29 09:07 -9.36739 115.83945 21337 ft 316 kts 269°
2026-03-29 09:07 -9.36755 115.81714 21200 ft 316 kts 269°
2026-03-29 09:07 -9.36808 115.79490 20992 ft 315 kts 267°
2026-03-29 09:08 -9.36914 115.77276 20798 ft 314 kts 266°
2026-03-29 09:08 -9.37059 115.75069 20586 ft 313 kts 265°
2026-03-29 09:08 -9.37225 115.72897 20379 ft 312 kts 264°
2026-03-29 09:08 -9.37405 115.70710 20158 ft 311 kts 264°
2026-03-29 09:09 -9.37591 115.68528 19939 ft 309 kts 264°
2026-03-29 09:09 -9.37780 115.66357 19717 ft 309 kts 264°
2026-03-29 09:09 -9.37970 115.64187 19506 ft 308 kts 264°
2026-03-29 09:09 -9.38160 115.62024 19320 ft 307 kts 264°
2026-03-29 09:10 -9.38350 115.59870 19149 ft 306 kts 264°
2026-03-29 09:10 -9.38540 115.57714 18972 ft 306 kts 264°
2026-03-29 09:10 -9.38729 115.55562 18724 ft 305 kts 264°
2026-03-29 09:10 -9.38917 115.53427 18438 ft 303 kts 264°
2026-03-29 09:11 -9.39104 115.51302 18134 ft 302 kts 264°
2026-03-29 09:11 -9.39288 115.49207 17776 ft 301 kts 264°
2026-03-29 09:11 -9.39473 115.47100 17446 ft 299 kts 264°
2026-03-29 09:11 -9.39658 115.45003 17124 ft 298 kts 264°
2026-03-29 09:12 -9.39833 115.42913 16885 ft 295 kts 265°
2026-03-29 09:12 -9.39916 115.40824 16867 ft 297 kts 268°
2026-03-29 09:12 -9.39902 115.38719 16578 ft 297 kts 270°
2026-03-29 09:12 -9.39858 115.36634 16289 ft 295 kts 270°
2026-03-29 09:13 -9.39812 115.34558 15993 ft 294 kts 270°
2026-03-29 09:13 -9.39768 115.32490 15690 ft 292 kts 270°
2026-03-29 09:13 -9.39726 115.30434 15404 ft 291 kts 271°
2026-03-29 09:13 -9.39685 115.28386 15117 ft 289 kts 271°
2026-03-29 09:14 -9.39644 115.26379 14835 ft 288 kts 271°
2026-03-29 09:14 -9.39603 115.24351 14562 ft 287 kts 271°
2026-03-29 09:14 -9.39563 115.22333 14268 ft 286 kts 271°
2026-03-29 09:14 -9.39522 115.20321 14001 ft 284 kts 271°
2026-03-29 09:15 -9.39482 115.18321 13752 ft 283 kts 271°
2026-03-29 09:15 -9.39442 115.16324 13461 ft 283 kts 271°
2026-03-29 09:15 -9.39402 115.14332 13181 ft 281 kts 271°
2026-03-29 09:15 -9.39362 115.12353 12906 ft 280 kts 271°
2026-03-29 09:16 -9.39322 115.10383 12631 ft 278 kts 271°
2026-03-29 09:16 -9.39242 115.06471 12095 ft 276 kts 271°
2026-03-29 09:16 -9.39202 115.04526 11833 ft 275 kts 271°
2026-03-29 09:17 -9.39163 115.02589 11569 ft 274 kts 271°
2026-03-29 09:17 -9.39124 115.00689 11328 ft 272 kts 271°
2026-03-29 09:17 -9.39064 114.98773 11053 ft 272 kts 277°
2026-03-29 09:17 -9.38517 114.96957 10750 ft 270 kts 301°
2026-03-29 09:18 -9.37338 114.95500 10471 ft 266 kts 324°
2026-03-29 09:18 -9.35740 114.94603 10323 ft 263 kts 345°
2026-03-29 09:18 -9.33952 114.94310 10219 ft 260 kts 359°
2026-03-29 09:18 -9.32142 114.94226 10086 ft 260 kts
2026-03-29 09:19 -9.30332 114.94159 9798 ft 259 kts
2026-03-29 09:19 -9.28536 114.94088 9502 ft 257 kts
2026-03-29 09:19 -9.26753 114.94008 9203 ft 256 kts 360°
2026-03-29 09:19 -9.24977 114.93924 8899 ft 255 kts 359°
2026-03-29 09:20 -9.23212 114.93837 8631 ft 253 kts 359°
2026-03-29 09:20 -9.21452 114.93747 8363 ft 253 kts 359°
2026-03-29 09:20 -9.19695 114.93657 8100 ft 252 kts 359°
2026-03-29 09:20 -9.17971 114.93569 7846 ft 251 kts 359°
2026-03-29 09:21 -9.16232 114.93479 7610 ft 250 kts 359°
2026-03-29 09:21 -9.14502 114.93389 7366 ft 249 kts 359°
2026-03-29 09:21 -9.12777 114.93300 7128 ft 248 kts 359°
2026-03-29 09:21 -9.11057 114.93213 6899 ft 246 kts 359°
2026-03-29 09:22 -9.09353 114.93124 6659 ft 244 kts 359°
2026-03-29 09:22 -9.07660 114.93035 6370 ft 243 kts 359°
2026-03-29 09:22 -9.05972 114.92947 6069 ft 243 kts 359°
2026-03-29 09:22 -9.04255 114.92855 5551 ft 252 kts 358°
2026-03-29 09:23 -9.02492 114.92748 5173 ft 254 kts 358°
2026-03-29 09:23 -9.00725 114.92640 4862 ft 253 kts 359°
2026-03-29 09:23 -8.98971 114.92530 4563 ft 252 kts 359°
2026-03-29 09:23 -8.97228 114.92422 4079 ft 250 kts 359°
2026-03-29 09:24 -8.95497 114.92319 3680 ft 249 kts 359°
2026-03-29 09:24 -8.93773 114.92216 3374 ft 248 kts 359°
2026-03-29 09:24 -8.92079 114.92117 3139 ft 246 kts 358°
2026-03-29 09:24 -8.90367 114.92011 3119 ft 247 kts 358°
2026-03-29 09:25 -8.88647 114.91902 3102 ft 247 kts 358°
2026-03-29 09:25 -8.86927 114.91794 3121 ft 248 kts 358°
2026-03-29 09:25 -8.85192 114.91687 3118 ft 254 kts 358°
2026-03-29 09:25 -8.83408 114.91579 3100 ft 258 kts 358°
2026-03-29 09:26 -8.81614 114.91469 3096 ft 259 kts 358°
2026-03-29 09:26 -8.79817 114.91359 3118 ft 258 kts 358°
2026-03-29 09:26 -8.78034 114.91363 3080 ft 252 kts 14°
2026-03-29 09:26 -8.76549 114.92124 3067 ft 234 kts 45°
2026-03-29 09:27 -8.75664 114.93461 3096 ft 228 kts 73°
2026-03-29 09:27 -8.75454 114.95048 3107 ft 229 kts 90°
2026-03-29 09:27 -8.75471 114.96637 3048 ft 227 kts 91°
2026-03-29 09:27 -8.75497 114.98202 2996 ft 215 kts 91°
2026-03-29 09:28 -8.75503 114.99669 2885 ft 204 kts 90°
2026-03-29 09:28 -8.75459 115.01081 2726 ft 196 kts 89°
2026-03-29 09:28 -8.75409 115.02423 2543 ft 184 kts 88°
2026-03-29 09:28 -8.75357 115.03676 2260 ft 172 kts 88°
2026-03-29 09:29 -8.75311 115.04836 2032 ft 158 kts 89°
2026-03-29 09:29 -8.75284 115.05556 1886 ft 150 kts 89°
2026-03-29 09:29 -8.75263 115.06605 1757 ft 148 kts 91°
2026-03-29 09:29 -8.75235 115.07651 1583 ft 149 kts 88°
2026-03-29 09:30 -8.75185 115.08695 1372 ft 148 kts 88°
2026-03-29 09:30 -8.75130 115.09738 1182 ft 148 kts 88°
2026-03-29 09:30 -8.75076 115.10774 999 ft 147 kts 88°
2026-03-29 09:30 -8.75019 115.11815 816 ft 148 kts 89°
2026-03-29 09:31 -8.74980 115.12850 617 ft 147 kts 90°
2026-03-29 09:31 -8.74946 115.13882 352 ft 145 kts 90°
2026-03-29 09:31 -8.74905 115.14896 156 ft 144 kts 92°
2026-03-29 09:31 -8.74875 115.15890 29 ft 133 kts 88°
2026-03-29 09:32 -8.74847 115.16629 28 ft 73 kts 88°
2026-03-29 09:32 -8.74832 115.17006 29 ft 48 kts 87°
2026-03-29 09:32 -8.74818 115.17255 28 ft 17 kts 78°
2026-03-29 09:33 -8.74651 115.17217 29 ft 20 kts 273°
2026-03-29 09:33 -8.74653 115.17105 29 ft 12 kts 292°
2026-03-29 09:33 -8.74586 115.17063 29 ft 14 kts
2026-03-29 09:33 -8.74548 115.17063 29 ft 0 kts 359°